Change the Weather History Date:

Saturday, October 20, 2012

  Actual Average Record
Temperature  
Mean Temperature 54 °F -  
Max Temperature 72 °F 66 °F 87 °F (2003)
Min Temperature 37 °F 48 °F 30 °F (2006)
Degree Days  
Heating Degree Days 11    
Growing Degree Days 4 (Base 50)    
Moisture  
Dew Point 41 °F    
Average Humidity 65    
Maximum Humidity 99    
Minimum Humidity 28    
Precipitation  
Precipitation 0.00 in - - ()
Sea Level Pressure  
Sea Level Pressure 29.85 in    
Wind  
Wind Speed 4 mph (South)    
Max Wind Speed 9 mph    
Max Gust Speed -    
Visibility 10 miles    
Events      
Averages and records for this station are not official NWS values.
T = Trace of Precipitation, MM = Missing Value Source: NWS Daily Summary

Daily Weather History Graph

Daily Weather History Graph

Search for Another Location

Airport or City:

Trip Planner

Search our weather history database for the weather conditions in past years. The results will help you decide how hot, cold, wet, or windy it might be!

Date:

Astronomy

Oct. 20, 2012 Rise Set
Actual Time 7:22 AM CDT 6:23 PM CDT
Civil Twilight 6:55 AM CDT 6:50 PM CDT
Nautical Twilight 6:25 AM CDT 7:20 PM CDT
Astronomical Twilight 5:54 AM CDT 7:51 PM CDT
Moon 12:55 PM CDT (10/20) 11:12 PM CDT (10/20)
Length of Visible Light 11h 54m
Length of Day
11h 01m
Waxing Crescent, 34% of the Moon is Illuminated
Oct 20
Waxing Crescent
Oct 21
First Quarter
Oct 29
Full
Nov 6
Last Quarter
Nov 13
New

Hourly Weather History & Observations

Time (CDT) Temp. Windchill Dew Point Humidity Pressure Visibility Wind Dir Wind Speed Gust Speed Precip Events Conditions
12:55 AM 48.4 °F - 42.8 °F 81% 29.83 in 10.0 mi WSW 3.5 mph - N/A   Overcast
1:55 AM 45.7 °F 44.4 °F 42.6 °F 89% 29.84 in 7.0 mi WSW 3.5 mph - N/A   Overcast
2:55 AM 44.2 °F - 42.3 °F 93% 29.83 in 10.0 mi Calm Calm - N/A   Clear
3:55 AM 43.2 °F - 41.7 °F 95% 29.83 in 10.0 mi Calm Calm - N/A   Clear
4:55 AM 41.9 °F - 41.0 °F 97% 29.85 in 10.0 mi Calm Calm - N/A   Mostly Cloudy
5:55 AM 40.3 °F - 39.9 °F 99% 29.87 in 10.0 mi Calm Calm - N/A   Partly Cloudy
6:55 AM 37.6 °F - 37.4 °F 99% 29.88 in 10.0 mi Calm Calm - N/A   Clear
7:55 AM 39.9 °F 37.8 °F 39.6 °F 99% 29.88 in 10.0 mi South 3.5 mph - N/A   Scattered Clouds
8:55 AM 44.8 °F 43.3 °F 43.2 °F 94% 29.91 in 10.0 mi SSE 3.5 mph - N/A   Overcast
9:55 AM 52.7 °F - 43.7 °F 71% 29.90 in 10.0 mi Variable 3.5 mph - N/A   Clear
10:55 AM 59.9 °F - 42.3 °F 52% 29.90 in 10.0 mi Variable 3.5 mph - N/A   Clear
11:55 AM 64.0 °F - 41.2 °F 43% 29.88 in 10.0 mi SW 6.9 mph - N/A   Clear
12:55 PM 66.6 °F - 38.7 °F 36% 29.87 in 10.0 mi Variable 4.6 mph - N/A   Clear
1:55 PM 68.5 °F - 35.8 °F 30% 29.83 in 10.0 mi Variable 4.6 mph - N/A   Clear
2:55 PM 70.3 °F - 35.2 °F 28% 29.82 in 10.0 mi Calm Calm - N/A   Clear
3:55 PM 71.8 °F - 37.4 °F 29% 29.80 in 10.0 mi SSE 6.9 mph - N/A   Clear
4:55 PM 71.8 °F - 38.1 °F 29% 29.81 in 10.0 mi Variable 6.9 mph - N/A   Clear
5:55 PM 68.0 °F - 41.2 °F 38% 29.81 in 10.0 mi SSE 6.9 mph - N/A   Clear
6:55 PM 60.6 °F - 43.3 °F 53% 29.82 in 10.0 mi SE 6.9 mph - N/A   Clear
7:55 PM 58.6 °F - 43.7 °F 58% 29.82 in 10.0 mi SSE 8.1 mph - N/A   Clear
8:55 PM 57.6 °F - 44.6 °F 62% 29.83 in 10.0 mi SSE 6.9 mph - N/A   Clear
9:55 PM 57.4 °F - 44.6 °F 62% 29.84 in 10.0 mi SSE 9.2 mph - N/A   Clear
10:55 PM 57.2 °F - 45.3 °F 65% 29.83 in 10.0 mi SSE 9.2 mph - N/A   Clear
11:55 PM 56.5 °F - 45.9 °F 68% 29.83 in 10.0 mi SSE 6.9 mph - N/A   Clear